This demonstration page uses our WeatherBlox Daily Observations layout. Learn more.

Left ArrowRight Arrow

44.8408, -93.29828

Hourly Observations for September 4, 2021

Temp ( °F °C ) Dew Point ( °F °C ) Humidity (%) Winds ( mph kmh ) Pressure ( in mb ) Visibility ( mi km ) Precip ( " mm )
12:29 am 00:29 Cloudy 62 16.7 60 15.6 93 93 NNE 3 6 29.93 1013 7 11 0.00 0.00
12:53 am 00:53 Cloudy 62 16.7 60 15.6 93 93 NNW 3 6 29.94 1014 7 11 0.00 0.00
1:53 am 01:53 Cloudy 62 16.7 60 15.6 93 93 NNW 8 13 29.93 1014 8 13 0.00 0.00
2:38 am 02:38 Cloudy 61 16.1 59 15 93 93 NNW 9 15 29.91 1013 10 16 0.00 0.00
2:53 am 02:53 Cloudy 62 16.7 59 15 90 90 NNW 7 11 29.93 1013 10 16 0.00 0.00
3:53 am 03:53 Cloudy 61 16.1 59 15 93 93 NNW 8 13 29.93 1014 10 16 0.00 0.00
4:08 am 04:08 Cloudy 62 16.7 59 15 90 90 NNW 6 9 29.93 1013 10 16 0.00 0.00
4:53 am 04:53 Cloudy 62 16.7 59 15 90 90 N 6 9 29.93 1014 10 16 0.00 0.00
5:18 am 05:18 Cloudy 62 16.7 59 15 90 90 NNE 3 6 29.93 1013 10 16 0.00 0.00
5:33 am 05:33 Cloudy 62 16.7 59 15 90 90 Calm 29.93 1013 10 16 0.00 0.00
5:50 am 05:50 Cloudy 63 17 59 15 88 88 Calm 29.93 1013 10 16 0.00 0.00
5:53 am 05:53 Cloudy 61 16.1 59 15 93 93 Calm 29.93 1014 10 16 0.00 0.00
6:06 am 06:06 Cloudy 61 16.1 59 15 93 93 Calm 29.94 1014 10 16 0.00 0.00
6:53 am 06:53 Cloudy 61 16.1 59 15 93 93 NW 7 11 29.94 1014 10 16 0.00 0.00
7:53 am 07:53 Cloudy 62 16.7 59 15 90 90 WNW 7 11 29.95 1014 10 16 0.00 0.00
8:35 am 08:35 Mostly Cloudy 63 17.2 59 15 87 87 NNW 7 11 29.94 1014 10 16 0.00 0.00
8:53 am 08:53 Mostly Cloudy 64 17.8 60 15.6 87 87 NW 8 13 29.95 1014 10 16 0.00 0.00
9:03 am 09:03 Mostly Cloudy 64 17.8 59 15 84 84 NW 9 15 29.94 1014 10 16 0.00 0.00
9:53 am 09:53 Mostly Cloudy 66 18.9 60 15.6 81 81 NW 8 13 29.94 1014 10 16 0.00 0.00
10:53 am 10:53 Partly Cloudy 70 21.1 61 16.1 73 73 WNW 7 11 29.94 1014 10 16 0.00 0.00
11:53 am 11:53 Mostly Sunny 71 21.7 58 14.4 63 63 NW 12 19 29.93 1013 10 16 0.00 0.00
12:53 pm 12:53 Partly Cloudy 74 23.3 55 12.8 52 52 NW 10 17 29.91 1013 10 16 0.00 0.00
1:53 pm 13:53 Mostly Sunny 75 23.9 54 12.2 48 48 WNW 13 20 29.90 1013 10 16 0.00 0.00
2:53 pm 14:53 Partly Cloudy 77 25 53 11.7 43 43 WNW 16 26 29.88 1012 10 16 0.00 0.00
3:53 pm 15:53 Partly Cloudy 77 25 53 11.7 43 43 NW 17 28 29.87 1011 10 16 0.00 0.00
4:53 pm 16:53 Partly Cloudy 78 25.6 53 11.7 42 42 W 15 24 29.86 1011 10 16 0.00 0.00
5:53 pm 17:53 Partly Cloudy 77 25 50 10 39 39 WNW 16 26 29.86 1011 10 16 0.00 0.00
6:53 pm 18:53 Mostly Sunny 74 23.3 51 10.6 45 45 WNW 12 19 29.86 1011 10 16 0.00 0.00
7:53 pm 19:53 Mostly Clear 72 22.2 50 10 46 46 WNW 8 13 29.87 1012 10 16 0.00 0.00
8:53 pm 20:53 Mostly Clear 70 21.1 50 10 49 49 W 6 9 29.88 1012 10 16 0.00 0.00
9:53 pm 21:53 Mostly Clear 69 20.6 51 10.6 53 53 W 8 13 29.89 1012 10 16 0.00 0.00
10:53 pm 22:53 Clear 67 19.4 51 10.6 57 57 W 8 13 29.89 1012 10 16 0.00 0.00
11:53 pm 23:53 Clear 65 18.3 51 10.6 61 61 WSW 5 7 29.89 1012 10 16 0.00 0.00

Powered by AerisWeather